Location: Karcze
(52.0945°N, 22.4786°E)
Time: 11:42:34
(UTC+00:00)

Aureole 1 Rocket - Pass Details

Date: 14 July 2020
Orbit: 377 x 1380 km, 73.9° (Epoch: 07 August)

Event Time Altitude Azimuth Distance (km) Brightness Sun altitude
Exits shadow 00:43:20 14° 192° (SSW) 1,846 4.9 -11.2°
Maximum altitude 00:47:24 71° 110° (ESE) 850 3.8 -10.9°
Drops below altitude 10° 00:53:42 10° 28° (NNE) 2,771 8.0 -10.4°
Sets 00:56:39 0° 27° (NNE) 3,889 9.4 -10.1°
